Time,TemperatureF,DewpointF,PressureIn,WindDirection,WindDirectionDegrees,WindSpeedMPH,WindSpeedGustMPH,Humidity,HourlyPrecipIn,Conditions,Clouds,dailyrainin,SolarRadiationWatts/m^2,SoftwareType,DateUTC
2013-03-06 00:00:00,28.4,21.8,30.33,East,91,1.0,5.0,76,0.00,,,0.00,0,Wunderground v.1.15,2013-03-06 07:00:00,
2013-03-06 00:10:00,27.9,21.0,30.33,East,91,0.0,0.0,75,0.00,,,0.00,0,Wunderground v.1.15,2013-03-06 07:10:00,
2013-03-06 00:20:00,27.8,19.6,30.33,ESE,110,1.0,1.0,71,0.00,,,0.00,0,Wunderground v.1.15,2013-03-06 07:20:00,
2013-03-06 00:30:00,27.8,19.3,30.33,ESE,110,0.0,0.0,70,0.00,,,0.00,0,Wunderground v.1.15,2013-03-06 07:30:00,
2013-03-06 00:35:00,27.8,19.9,30.33,ESE,110,0.0,0.0,72,0.00,,,0.00,0,Wunderground v.1.15,2013-03-06 07:35:00,
2013-03-06 00:45:00,28.0,20.5,30.33,ENE,58,0.0,1.0,73,0.00,,,0.00,0,Wunderground v.1.15,2013-03-06 07:45:00,
2013-03-06 00:50:00,27.8,20.6,30.33,East,100,0.0,1.0,74,0.00,,,0.00,0,Wunderground v.1.15,2013-03-06 07:50:00,
2013-03-06 01:00:00,27.9,20.4,30.33,East,83,1.0,2.0,73,0.00,,,0.00,0,Wunderground v.1.15,2013-03-06 08:00:00,
2013-03-06 01:05:00,28.5,21.9,30.33,East,96,2.0,2.0,76,0.00,,,0.00,0,Wunderground v.1.15,2013-03-06 08:05:00,
2013-03-06 01:15:00,28.1,20.6,30.32,ENE,73,2.0,4.0,73,0.00,,,0.00,0,Wunderground v.1.15,2013-03-06 08:15:00,
2013-03-06 01:20:00,28.2,21.3,30.32,ENE,64,2.0,4.0,75,0.00,,,0.00,0,Wunderground v.1.15,2013-03-06 08:20:00,
2013-03-06 01:25:00,27.9,20.7,30.32,ENE,59,3.0,4.0,74,0.00,,,0.00,0,Wunderground v.1.15,2013-03-06 08:25:00,
2013-03-06 01:30:00,28.1,20.6,30.32,NE,50,4.0,4.0,73,0.00,,,0.00,0,Wunderground v.1.15,2013-03-06 08:30:00,
2013-03-06 01:35:00,28.1,20.9,30.32,NE,54,4.0,4.0,74,0.00,,,0.00,0,Wunderground v.1.15,2013-03-06 08:35:00,
2013-03-06 01:45:00,27.8,20.3,30.32,ENE,57,4.0,4.0,73,0.00,,,0.00,0,Wunderground v.1.15,2013-03-06 08:45:00,
2013-03-06 01:50:00,27.5,20.0,30.31,NE,45,3.0,4.0,73,0.00,,,0.00,0,Wunderground v.1.15,2013-03-06 08:50:00,
2013-03-06 02:00:00,27.5,20.6,30.31,ENE,75,1.0,2.0,75,0.00,,,0.00,0,Wunderground v.1.15,2013-03-06 09:00:00,
2013-03-06 02:05:00,27.7,21.1,30.31,ENE,75,1.0,2.0,76,0.00,,,0.00,0,Wunderground v.1.15,2013-03-06 09:05:00,
2013-03-06 02:15:00,27.8,21.8,30.30,East,80,3.0,6.0,78,0.00,,,0.00,0,Wunderground v.1.15,2013-03-06 09:15:00,
2013-03-06 02:20:00,27.5,21.5,30.30,ENE,70,4.0,4.0,78,0.00,,,0.00,0,Wunderground v.1.15,2013-03-06 09:20:00,
2013-03-06 02:30:00,27.3,21.6,30.30,ENE,62,3.0,3.0,79,0.00,,,0.00,0,Wunderground v.1.15,2013-03-06 09:30:00,
2013-03-06 02:40:00,26.6,20.1,30.29,East,80,1.0,3.0,76,0.00,,,0.00,0,Wunderground v.1.15,2013-03-06 09:40:00,
2013-03-06 02:50:00,26.6,19.7,30.28,NE,34,1.0,3.0,75,0.00,,,0.00,0,Wunderground v.1.15,2013-03-06 09:50:00,
2013-03-06 03:00:00,27.0,20.4,30.28,East,81,1.0,5.0,76,0.00,,,0.00,0,Wunderground v.1.15,2013-03-06 10:00:00,
2013-03-06 03:05:00,27.4,21.4,30.28,ENE,60,3.0,5.0,78,0.00,,,0.00,0,Wunderground v.1.15,2013-03-06 10:05:00,
2013-03-06 03:15:00,26.6,19.4,30.28,East,98,3.0,5.0,74,0.00,,,0.00,0,Wunderground v.1.15,2013-03-06 10:15:00,
2013-03-06 03:25:00,26.5,19.3,30.28,ESE,116,2.0,3.0,74,0.00,,,0.00,0,Wunderground v.1.15,2013-03-06 10:25:00,
2013-03-06 03:35:00,25.5,17.7,30.28,SSW,198,2.0,3.0,72,0.00,,,0.00,0,Wunderground v.1.15,2013-03-06 10:35:00,
2013-03-06 03:45:00,25.0,16.9,30.28,SSE,167,1.0,1.0,71,0.00,,,0.00,0,Wunderground v.1.15,2013-03-06 10:45:00,
2013-03-06 03:50:00,25.1,17.7,30.28,ESE,120,2.0,3.0,73,0.00,,,0.00,0,Wunderground v.1.15,2013-03-06 10:50:00,
2013-03-06 04:00:00,24.8,17.4,30.28,SSE,156,2.0,2.0,73,0.00,,,0.00,0,Wunderground v.1.15,2013-03-06 11:00:00,
2013-03-06 04:15:00,24.5,16.8,30.28,SE,143,3.0,6.0,72,0.00,,,0.00,0,Wunderground v.1.15,2013-03-06 11:15:00,
2013-03-06 04:25:00,24.3,16.6,30.28,South,170,1.0,6.0,72,0.00,,,0.00,0,Wunderground v.1.15,2013-03-06 11:25:00,
2013-03-06 04:35:00,24.2,16.8,30.27,South,189,1.0,6.0,73,0.00,,,0.00,0,Wunderground v.1.15,2013-03-06 11:35:00,
2013-03-06 04:45:00,23.9,16.2,30.27,SE,146,1.0,6.0,72,0.00,,,0.00,0,Wunderground v.1.15,2013-03-06 11:45:00,
2013-03-06 04:50:00,23.9,16.2,30.27,SE,146,1.0,1.0,72,0.00,,,0.00,0,Wunderground v.1.15,2013-03-06 11:50:00,
2013-03-06 05:00:00,24.3,16.9,30.27,SSW,197,1.0,1.0,73,0.00,,,0.00,0,Wunderground v.1.15,2013-03-06 12:00:00,
2013-03-06 05:10:00,24.1,16.4,30.27,South,191,1.0,1.0,72,0.00,,,0.00,0,Wunderground v.1.15,2013-03-06 12:10:00,
2013-03-06 05:15:00,23.8,15.8,30.27,South,191,0.0,6.0,71,0.00,,,0.00,0,Wunderground v.1.15,2013-03-06 12:15:00,
2013-03-06 05:20:00,23.6,15.9,30.27,South,191,0.0,6.0,72,0.00,,,0.00,0,Wunderground v.1.15,2013-03-06 12:20:00,
2013-03-06 05:25:00,23.6,15.9,30.27,South,191,0.0,6.0,72,0.00,,,0.00,0,Wunderground v.1.15,2013-03-06 12:25:00,
2013-03-06 05:35:00,23.7,16.0,30.27,South,191,0.0,6.0,72,0.00,,,0.00,0,Wunderground v.1.15,2013-03-06 12:35:00,
2013-03-06 05:45:00,23.3,15.6,30.27,South,189,0.0,6.0,72,0.00,,,0.00,0,Wunderground v.1.15,2013-03-06 12:45:00,
2013-03-06 05:50:00,23.3,15.9,30.27,South,189,0.0,6.0,73,0.00,,,0.00,0,Wunderground v.1.15,2013-03-06 12:50:00,
2013-03-06 05:55:00,23.3,15.9,30.27,South,189,0.0,6.0,73,0.00,,,0.00,0,Wunderground v.1.15,2013-03-06 12:55:00,
2013-03-06 06:05:00,23.0,15.6,30.27,South,189,0.0,6.0,73,0.00,,,0.00,0,Wunderground v.1.15,2013-03-06 13:05:00,
2013-03-06 06:15:00,22.8,15.8,30.27,South,189,0.0,0.0,74,0.00,,,0.00,0,Wunderground v.1.15,2013-03-06 13:15:00,
2013-03-06 06:20:00,23.0,16.3,30.27,South,189,0.0,0.0,75,0.00,,,0.00,0,Wunderground v.1.15,2013-03-06 13:20:00,
2013-03-06 06:25:00,22.9,16.2,30.27,South,189,0.0,0.0,75,0.00,,,0.00,0,Wunderground v.1.15,2013-03-06 13:25:00,
2013-03-06 06:35:00,22.9,16.2,30.26,South,189,0.0,0.0,75,0.00,,,0.00,0,Wunderground v.1.15,2013-03-06 13:35:00,
2013-03-06 06:45:00,22.9,15.8,30.26,South,189,0.0,0.0,74,0.00,,,0.00,9,Wunderground v.1.15,2013-03-06 13:45:00,
2013-03-06 06:55:00,22.7,15.7,30.26,South,189,0.0,1.0,74,0.00,,,0.00,12,Wunderground v.1.15,2013-03-06 13:55:00,
2013-03-06 07:05:00,22.6,15.6,30.26,South,189,0.0,0.0,74,0.00,,,0.00,16,Wunderground v.1.15,2013-03-06 14:05:00,
2013-03-06 07:15:00,22.6,15.6,30.26,South,189,0.0,0.0,74,0.00,,,0.00,19,Wunderground v.1.15,2013-03-06 14:15:00,
2013-03-06 07:25:00,22.5,15.5,30.26,South,189,0.0,0.0,74,0.00,,,0.00,21,Wunderground v.1.15,2013-03-06 14:25:00,
2013-03-06 07:30:00,22.4,15.4,30.26,South,189,0.0,0.0,74,0.00,,,0.00,23,Wunderground v.1.15,2013-03-06 14:30:00,
2013-03-06 07:40:00,22.7,16.0,30.26,South,189,0.0,0.0,75,0.00,,,0.00,25,Wunderground v.1.15,2013-03-06 14:40:00,
2013-03-06 07:45:00,22.6,15.6,30.26,South,189,0.0,0.0,74,0.00,,,0.00,26,Wunderground v.1.15,2013-03-06 14:45:00,
2013-03-06 07:55:00,22.9,16.2,30.26,South,189,0.0,0.0,75,0.00,,,0.00,28,Wunderground v.1.15,2013-03-06 14:55:00,
2013-03-06 08:00:00,22.9,16.2,30.26,South,189,0.0,0.0,75,0.00,,,0.00,30,Wunderground v.1.15,2013-03-06 15:00:00,
2013-03-06 08:10:00,23.3,16.5,30.25,South,189,0.0,0.0,75,0.00,,,0.00,33,Wunderground v.1.15,2013-03-06 15:10:00,
2013-03-06 08:20:00,24.2,17.7,30.25,South,189,0.0,0.0,76,0.00,,,0.00,294,Wunderground v.1.15,2013-03-06 15:20:00,
2013-03-06 08:25:00,25.8,19.6,30.25,South,177,0.0,0.0,77,0.00,,,0.00,308,Wunderground v.1.15,2013-03-06 15:25:00,
2013-03-06 08:35:00,27.5,19.0,30.24,SSE,165,1.0,3.0,70,0.00,,,0.00,334,Wunderground v.1.15,2013-03-06 15:35:00,
2013-03-06 08:45:00,29.1,20.2,30.24,SSE,160,1.0,2.0,69,0.00,,,0.00,364,Wunderground v.1.15,2013-03-06 15:45:00,
2013-03-06 08:50:00,29.9,20.6,30.24,ESE,112,2.0,3.0,68,0.00,,,0.00,378,Wunderground v.1.15,2013-03-06 15:50:00,
2013-03-06 09:00:00,30.4,18.2,30.23,SE,141,4.0,4.0,60,0.00,,,0.00,406,Wunderground v.1.15,2013-03-06 16:00:00,
2013-03-06 09:05:00,31.5,18.4,30.23,South,187,3.0,4.0,58,0.00,,,0.00,424,Wunderground v.1.15,2013-03-06 16:05:00,
2013-03-06 09:15:00,33.0,17.7,30.22,SSE,151,3.0,3.0,53,0.00,,,0.00,450,Wunderground v.1.15,2013-03-06 16:15:00,
2013-03-06 09:20:00,33.5,17.7,30.21,SSE,153,3.0,4.0,52,0.00,,,0.00,464,Wunderground v.1.15,2013-03-06 16:20:00,
2013-03-06 09:30:00,35.0,18.2,30.21,South,170,3.0,3.0,50,0.00,,,0.00,494,Wunderground v.1.15,2013-03-06 16:30:00,
2013-03-06 09:35:00,36.0,17.2,30.20,SSW,205,2.0,3.0,46,0.00,,,0.00,506,Wunderground v.1.15,2013-03-06 16:35:00,
2013-03-06 09:45:00,37.2,17.3,30.19,South,191,1.0,2.0,44,0.00,,,0.00,531,Wunderground v.1.15,2013-03-06 16:45:00,
2013-03-06 09:55:00,38.0,18.0,30.19,East,89,1.0,1.0,44,0.00,,,0.00,561,Wunderground v.1.15,2013-03-06 16:55:00,
2013-03-06 10:00:00,38.5,17.4,30.18,SE,144,1.0,1.0,42,0.00,,,0.00,578,Wunderground v.1.15,2013-03-06 17:00:00,
2013-03-06 10:05:00,38.7,17.0,30.18,SSE,154,1.0,5.0,41,0.00,,,0.00,601,Wunderground v.1.15,2013-03-06 17:05:00,
2013-03-06 10:15:00,39.6,17.2,30.17,SSE,165,2.0,5.0,40,0.00,,,0.00,605,Wunderground v.1.15,2013-03-06 17:15:00,
2013-03-06 10:25:00,39.6,18.4,30.16,SE,130,2.0,4.0,42,0.00,,,0.00,624,Wunderground v.1.15,2013-03-06 17:25:00,
2013-03-06 10:35:00,40.3,17.3,30.16,SSE,152,2.0,3.0,39,0.00,,,0.00,643,Wunderground v.1.15,2013-03-06 17:35:00,
2013-03-06 10:45:00,42.0,20.0,30.14,ESE,115,1.0,5.0,41,0.00,,,0.00,661,Wunderground v.1.15,2013-03-06 17:45:00,
2013-03-06 10:55:00,43.0,20.9,30.14,NE,54,1.0,2.0,41,0.00,,,0.00,675,Wunderground v.1.15,2013-03-06 17:55:00,
2013-03-06 11:10:00,43.2,19.3,30.13,ENE,63,1.0,1.0,38,0.00,,,0.00,728,Wunderground v.1.15,2013-03-06 18:10:00,
2013-03-06 11:15:00,43.3,19.4,30.12,ENE,62,2.0,2.0,38,0.00,,,0.00,708,Wunderground v.1.15,2013-03-06 18:15:00,
2013-03-06 11:25:00,45.1,20.3,30.11,ENE,65,1.0,2.0,37,0.00,,,0.00,733,Wunderground v.1.15,2013-03-06 18:25:00,
2013-03-06 11:35:00,45.4,20.0,30.10,ENE,62,1.0,5.0,36,0.00,,,0.00,724,Wunderground v.1.15,2013-03-06 18:35:00,
2013-03-06 11:40:00,45.4,21.2,30.10,ENE,63,2.0,5.0,38,0.00,,,0.00,733,Wunderground v.1.15,2013-03-06 18:40:00,
2013-03-06 11:50:00,47.3,21.0,30.09,ENE,63,2.0,2.0,35,0.00,,,0.00,738,Wunderground v.1.15,2013-03-06 18:50:00,
2013-03-06 11:55:00,47.8,20.8,30.08,ENE,61,2.0,5.0,34,0.00,,,0.00,740,Wunderground v.1.15,2013-03-06 18:55:00,
2013-03-06 12:00:00,47.7,20.7,30.08,ENE,62,2.0,2.0,34,0.00,,,0.00,744,Wunderground v.1.15,2013-03-06 19:00:00,
2013-03-06 12:05:00,48.7,21.5,30.08,NE,40,1.0,2.0,34,0.00,,,0.00,747,Wunderground v.1.15,2013-03-06 19:05:00,
2013-03-06 12:20:00,49.9,21.9,30.06,NE,44,1.0,1.0,33,0.00,,,0.00,800,Wunderground v.1.15,2013-03-06 19:20:00,
2013-03-06 12:30:00,51.1,20.7,30.05,NE,52,1.0,1.0,30,0.00,,,0.00,795,Wunderground v.1.15,2013-03-06 19:30:00,
2013-03-06 12:35:00,51.4,21.0,30.05,NE,54,1.0,1.0,30,0.00,,,0.00,807,Wunderground v.1.15,2013-03-06 19:35:00,
2013-03-06 12:45:00,53.1,21.6,30.03,NE,54,1.0,1.0,29,0.00,,,0.00,844,Wunderground v.1.15,2013-03-06 19:45:00,
2013-03-06 12:55:00,54.8,22.3,30.02,SSE,164,1.0,3.0,28,0.00,,,0.00,480,Wunderground v.1.15,2013-03-06 19:55:00,
2013-03-06 13:00:00,54.7,23.0,30.01,SSW,204,1.0,4.0,29,0.00,,,0.00,548,Wunderground v.1.15,2013-03-06 20:00:00,
2013-03-06 13:05:00,54.2,21.8,30.00,SSE,168,2.0,4.0,28,0.00,,,0.00,571,Wunderground v.1.15,2013-03-06 20:05:00,
2013-03-06 13:15:00,55.0,23.3,29.99,SW,220,2.0,4.0,29,0.00,,,0.00,504,Wunderground v.1.15,2013-03-06 20:15:00,
2013-03-06 13:20:00,56.3,22.7,29.99,SSW,199,1.0,1.0,27,0.00,,,0.00,589,Wunderground v.1.15,2013-03-06 20:20:00,
2013-03-06 13:30:00,55.4,21.9,29.98,East,81,2.0,4.0,27,0.00,,,0.00,715,Wunderground v.1.15,2013-03-06 20:30:00,
2013-03-06 13:40:00,57.0,22.4,29.97,ESE,104,1.0,1.0,26,0.00,,,0.00,742,Wunderground v.1.15,2013-03-06 20:40:00,
2013-03-06 13:45:00,58.6,22.8,29.96,NNW,327,1.0,4.0,25,0.00,,,0.00,570,Wunderground v.1.15,2013-03-06 20:45:00,
2013-03-06 13:55:00,57.4,19.9,29.95,SSW,212,3.0,5.0,23,0.00,,,0.00,680,Wunderground v.1.15,2013-03-06 20:55:00,
2013-03-06 14:05:00,57.7,21.1,29.94,WSW,237,5.0,5.0,24,0.00,,,0.00,677,Wunderground v.1.15,2013-03-06 21:05:00,
2013-03-06 14:10:00,57.5,19.9,29.94,SW,231,5.0,5.0,23,0.00,,,0.00,670,Wunderground v.1.15,2013-03-06 21:10:00,
2013-03-06 14:15:00,57.6,21.0,29.94,WSW,238,5.0,6.0,24,0.00,,,0.00,656,Wunderground v.1.15,2013-03-06 21:15:00,
2013-03-06 14:25:00,58.9,21.1,29.94,SW,223,4.0,6.0,23,0.00,,,0.00,629,Wunderground v.1.15,2013-03-06 21:25:00,
2013-03-06 14:30:00,58.0,21.4,29.93,SSW,201,5.0,7.0,24,0.00,,,0.00,606,Wunderground v.1.15,2013-03-06 21:30:00,
2013-03-06 14:40:00,58.3,21.6,29.93,SW,226,6.0,7.0,24,0.00,,,0.00,640,Wunderground v.1.15,2013-03-06 21:40:00,
2013-03-06 14:50:00,58.9,22.1,29.93,SW,224,6.0,9.0,24,0.00,,,0.00,612,Wunderground v.1.15,2013-03-06 21:50:00,
2013-03-06 15:00:00,59.2,22.4,29.93,SSW,199,7.0,7.0,24,0.00,,,0.00,594,Wunderground v.1.15,2013-03-06 22:00:00,
2013-03-06 15:05:00,58.9,22.1,29.93,SSW,211,7.0,7.0,24,0.00,,,0.00,559,Wunderground v.1.15,2013-03-06 22:05:00,
2013-03-06 15:15:00,58.8,21.0,29.92,SW,226,8.0,8.0,23,0.00,,,0.00,536,Wunderground v.1.15,2013-03-06 22:15:00,
2013-03-06 15:25:00,59.5,21.6,29.92,SW,226,5.0,6.0,23,0.00,,,0.00,503,Wunderground v.1.15,2013-03-06 22:25:00,
2013-03-06 15:35:00,59.3,20.4,29.92,SSW,210,5.0,5.0,22,0.00,,,0.00,468,Wunderground v.1.15,2013-03-06 22:35:00,
2013-03-06 15:45:00,58.9,22.1,29.92,SW,217,6.0,6.0,24,0.00,,,0.00,438,Wunderground v.1.15,2013-03-06 22:45:00,
2013-03-06 15:55:00,59.4,20.5,29.92,SSW,210,5.0,5.0,22,0.00,,,0.00,411,Wunderground v.1.15,2013-03-06 22:55:00,
2013-03-06 16:00:00,59.8,20.8,29.91,SW,216,4.0,4.0,22,0.00,,,0.00,396,Wunderground v.1.15,2013-03-06 23:00:00,
2013-03-06 16:10:00,59.3,22.5,29.91,SW,214,6.0,9.0,24,0.00,,,0.00,362,Wunderground v.1.15,2013-03-06 23:10:00,
2013-03-06 16:20:00,58.9,21.1,29.91,SW,225,7.0,7.0,23,0.00,,,0.00,332,Wunderground v.1.15,2013-03-06 23:20:00,
2013-03-06 16:30:00,59.2,20.3,29.91,SSW,212,5.0,9.0,22,0.00,,,0.00,301,Wunderground v.1.15,2013-03-06 23:30:00,
2013-03-06 16:35:00,59.2,22.4,29.91,South,191,6.0,9.0,24,0.00,,,0.00,281,Wunderground v.1.15,2013-03-06 23:35:00,
2013-03-06 16:45:00,58.9,22.1,29.90,SW,222,5.0,9.0,24,0.00,,,0.00,243,Wunderground v.1.15,2013-03-06 23:45:00,
2013-03-06 16:55:00,59.2,21.4,29.90,SSW,211,5.0,9.0,23,0.00,,,0.00,199,Wunderground v.1.15,2013-03-06 23:55:00,
2013-03-06 17:05:00,57.4,21.8,29.90,SW,232,4.0,9.0,25,0.00,,,0.00,33,Wunderground v.1.15,2013-03-07 00:05:00,
2013-03-06 17:15:00,56.3,21.8,29.90,SW,222,4.0,9.0,26,0.00,,,0.00,28,Wunderground v.1.15,2013-03-07 00:15:00,
2013-03-06 17:25:00,55.8,22.3,29.90,SW,218,3.0,9.0,27,0.00,,,0.00,25,Wunderground v.1.15,2013-03-07 00:25:00,
2013-03-06 17:30:00,55.2,23.5,29.90,SW,230,2.0,9.0,29,0.00,,,0.00,21,Wunderground v.1.15,2013-03-07 00:30:00,
2013-03-06 17:40:00,54.6,21.2,29.90,WSW,241,2.0,2.0,27,0.00,,,0.00,16,Wunderground v.1.15,2013-03-07 00:40:00,
2013-03-06 17:45:00,53.9,21.5,29.90,SW,233,2.0,9.0,28,0.00,,,0.00,12,Wunderground v.1.15,2013-03-07 00:45:00,
2013-03-06 17:55:00,53.1,20.8,29.90,WSW,239,1.0,1.0,28,0.00,,,0.00,7,Wunderground v.1.15,2013-03-07 00:55:00,
2013-03-06 18:00:00,53.0,22.4,29.90,WSW,239,0.0,9.0,30,0.00,,,0.00,5,Wunderground v.1.15,2013-03-07 01:00:00,
2013-03-06 18:05:00,52.8,23.0,29.90,WSW,239,1.0,9.0,31,0.00,,,0.00,0,Wunderground v.1.15,2013-03-07 01:05:00,
2013-03-06 18:20:00,51.3,25.2,29.91,WSW,239,0.0,0.0,36,0.00,,,0.00,0,Wunderground v.1.15,2013-03-07 01:20:00,
2013-03-06 18:30:00,50.1,26.1,29.92,WSW,239,0.0,0.0,39,0.00,,,0.00,0,Wunderground v.1.15,2013-03-07 01:30:00,
2013-03-06 18:40:00,48.7,26.0,29.92,WSW,239,0.0,0.0,41,0.00,,,0.00,0,Wunderground v.1.15,2013-03-07 01:40:00,
2013-03-06 18:45:00,48.3,25.7,29.92,WSW,239,0.0,0.0,41,0.00,,,0.00,0,Wunderground v.1.15,2013-03-07 01:45:00,
2013-03-06 18:55:00,47.4,27.1,29.93,WSW,239,0.0,0.0,45,0.00,,,0.00,0,Wunderground v.1.15,2013-03-07 01:55:00,
2013-03-06 19:05:00,46.7,25.9,29.93,WSW,239,0.0,4.0,44,0.00,,,0.00,0,Wunderground v.1.15,2013-03-07 02:05:00,
2013-03-06 19:10:00,46.5,26.3,29.94,WSW,239,0.0,4.0,45,0.00,,,0.00,0,Wunderground v.1.15,2013-03-07 02:10:00,
2013-03-06 19:20:00,46.2,26.5,29.94,WSW,239,0.0,4.0,46,0.00,,,0.00,0,Wunderground v.1.15,2013-03-07 02:20:00,
2013-03-06 19:30:00,46.2,27.1,29.93,WSW,239,0.0,4.0,47,0.00,,,0.00,0,Wunderground v.1.15,2013-03-07 02:30:00,
2013-03-06 19:40:00,45.9,27.8,29.94,WSW,239,0.0,4.0,49,0.00,,,0.00,0,Wunderground v.1.15,2013-03-07 02:40:00,
2013-03-06 19:50:00,45.6,31.2,29.94,WSW,238,0.0,4.0,57,0.00,,,0.00,0,Wunderground v.1.15,2013-03-07 02:50:00,
2013-03-06 19:55:00,45.0,30.7,29.93,NE,53,1.0,4.0,57,0.00,,,0.00,0,Wunderground v.1.15,2013-03-07 02:55:00,
2013-03-06 20:00:00,44.4,29.7,29.93,NE,52,1.0,1.0,56,0.00,,,0.00,0,Wunderground v.1.15,2013-03-07 03:00:00,
2013-03-06 20:05:00,44.2,28.1,29.93,NE,52,0.0,4.0,53,0.00,,,0.00,0,Wunderground v.1.15,2013-03-07 03:05:00,
2013-03-06 20:15:00,44.2,30.3,29.93,ENE,61,1.0,4.0,58,0.00,,,0.00,0,Wunderground v.1.15,2013-03-07 03:15:00,
2013-03-06 20:25:00,43.8,29.5,29.93,ENE,69,1.0,4.0,57,0.00,,,0.00,0,Wunderground v.1.15,2013-03-07 03:25:00,
2013-03-06 20:35:00,43.9,30.5,29.94,ENE,73,2.0,4.0,59,0.00,,,0.00,0,Wunderground v.1.15,2013-03-07 03:35:00,
2013-03-06 20:45:00,43.5,30.1,29.94,ENE,73,1.0,4.0,59,0.00,,,0.00,0,Wunderground v.1.15,2013-03-07 03:45:00,
2013-03-06 20:50:00,43.3,28.2,29.94,ENE,73,0.0,4.0,55,0.00,,,0.00,0,Wunderground v.1.15,2013-03-07 03:50:00,
2013-03-06 21:00:00,42.9,28.7,29.94,ENE,73,0.0,4.0,57,0.00,,,0.00,0,Wunderground v.1.15,2013-03-07 04:00:00,
2013-03-06 21:05:00,42.9,29.1,29.94,ENE,73,0.0,4.0,58,0.00,,,0.00,0,Wunderground v.1.15,2013-03-07 04:05:00,
2013-03-06 21:15:00,42.4,28.7,29.94,ENE,73,0.0,0.0,58,0.00,,,0.00,0,Wunderground v.1.15,2013-03-07 04:15:00,
2013-03-06 21:25:00,41.9,29.0,29.94,ENE,73,0.0,2.0,60,0.00,,,0.00,0,Wunderground v.1.15,2013-03-07 04:25:00,
2013-03-06 21:35:00,41.3,28.0,29.94,ENE,73,0.0,0.0,59,0.00,,,0.00,0,Wunderground v.1.15,2013-03-07 04:35:00,
2013-03-06 21:40:00,41.3,28.4,29.93,ENE,73,0.0,0.0,60,0.00,,,0.00,0,Wunderground v.1.15,2013-03-07 04:40:00,
2013-03-06 21:50:00,40.6,28.6,29.94,ENE,73,0.0,1.0,62,0.00,,,0.00,0,Wunderground v.1.15,2013-03-07 04:50:00,
2013-03-06 22:00:00,40.4,29.6,29.94,ENE,73,0.0,0.0,65,0.00,,,0.00,0,Wunderground v.1.15,2013-03-07 05:00:00,
2013-03-06 22:05:00,40.2,29.4,29.94,ENE,73,0.0,1.0,65,0.00,,,0.00,0,Wunderground v.1.15,2013-03-07 05:05:00,
2013-03-06 22:10:00,39.8,28.6,29.94,ENE,73,0.0,1.0,64,0.00,,,0.00,0,Wunderground v.1.15,2013-03-07 05:10:00,
2013-03-06 22:15:00,39.5,27.9,29.94,ENE,73,0.0,1.0,63,0.00,,,0.00,0,Wunderground v.1.15,2013-03-07 05:15:00,
2013-03-06 22:20:00,39.3,28.1,29.94,ENE,73,0.0,1.0,64,0.00,,,0.00,0,Wunderground v.1.15,2013-03-07 05:20:00,
2013-03-06 22:25:00,39.4,29.0,29.94,ENE,73,0.0,1.0,66,0.00,,,0.00,0,Wunderground v.1.15,2013-03-07 05:25:00,
2013-03-06 22:30:00,39.6,29.9,29.94,ENE,73,0.0,1.0,68,0.00,,,0.00,0,Wunderground v.1.15,2013-03-07 05:30:00,
2013-03-06 22:40:00,39.5,29.8,29.94,ENE,73,0.0,1.0,68,0.00,,,0.00,0,Wunderground v.1.15,2013-03-07 05:40:00,
2013-03-06 22:45:00,39.3,29.3,29.94,ENE,73,0.0,1.0,67,0.00,,,0.00,0,Wunderground v.1.15,2013-03-07 05:45:00,
2013-03-06 22:55:00,38.5,28.1,29.94,ENE,73,0.0,1.0,66,0.00,,,0.00,0,Wunderground v.1.15,2013-03-07 05:55:00,
2013-03-06 23:00:00,38.4,28.0,29.94,ENE,73,0.0,1.0,66,0.00,,,0.00,0,Wunderground v.1.15,2013-03-07 06:00:00,
2013-03-06 23:10:00,38.4,29.1,29.94,ENE,73,0.0,1.0,69,0.00,,,0.00,0,Wunderground v.1.15,2013-03-07 06:10:00,
2013-03-06 23:15:00,38.4,28.8,29.94,ENE,73,0.0,1.0,68,0.00,,,0.00,0,Wunderground v.1.15,2013-03-07 06:15:00,
2013-03-06 23:25:00,38.2,28.6,29.93,ENE,73,0.0,1.0,68,0.00,,,0.00,0,Wunderground v.1.15,2013-03-07 06:25:00,
2013-03-06 23:35:00,37.6,28.0,29.94,ENE,73,0.0,1.0,68,0.00,,,0.00,0,Wunderground v.1.15,2013-03-07 06:35:00,
2013-03-06 23:45:00,37.3,28.1,29.94,ENE,74,0.0,2.0,69,0.00,,,0.00,0,Wunderground v.1.15,2013-03-07 06:45:00,
2013-03-06 23:55:00,37.2,28.3,29.94,ENE,73,0.0,1.0,70,0.00,,,0.00,0,Wunderground v.1.15,2013-03-07 06:55:00,